Regional Weather Roundup
Issued by NWS

Home | Current Version | Previous Version | Graphics & Text | Print | Product List | Glossary On
Versions: 1 2 3 4 5 6 7 8 9 10 11 12 13 14 15 16 17 18 19 20 21 22 23 24 25 26 27 28 29 30 31 32 33 34 35 36 37 38 39 40 41 42 43 44 45 46 47 48 49 50
000
ASUS44 KMEG 230810
RWRTN
TENNESSEE HOURLY STATE WEATHER ROUNDUP
NATIONAL WEATHER SERVICE MEMPHIS TN
200 AM CST THU NOV 23 2017

TNZ002-004-019-021-049-052-054-088>092-230900-
WEST TENNESSEE

CITY           SKY/WX    TMP DP  RH WIND       PRES   REMARKS
MEMPHIS INTL   CLOUDY    33  24  69 CALM      30.19F
NWS MEMPHIS      N/A     27 N/A N/A MISG        N/A
JACKSON        CLOUDY    25  23  92 CALM      30.20F
DYERSBURG      PTCLDY    28  25  88 E3        30.23R
SOMERVILLE     CLEAR     27  23  86 CALM      30.17F
COVINGTON      CLEAR     23  21  93 N5        30.22R WCI  17
UNION CITY     CLEAR     25  23  93 CALM      30.22F
BOLIVAR        CLEAR     25  23  93 CALM      30.18F
PARIS          CLEAR     27  23  86 N3        30.20S
HUNTINGDON     CLEAR     27  25  93 CALM      30.19F
LEXINGTON      CLEAR     28  23  80 NE5       30.19F WCI  23
SELMER         CLEAR     30  23  74 N6        30.18S WCI  24
SAVANNAH       CLEAR     25  25 100 CALM      30.19R FOG
$$

TNZ008-025-027-028-033-062-065-066-230900-
NORTH MIDDLE TENNESSEE

CITY           SKY/WX    TMP DP  RH WIND       PRES   REMARKS
NASHVILLE      CLOUDY    32  24  72 N3        30.18F
PORTLAND         N/A     25  25 100 CALM      30.18R
CLARKSVILLE    CLOUDY    26  21  81 CALM      30.20F
SMYRNA         CLEAR     25  22  88 NW3       30.19F
COOKEVILLE     CLEAR     23  21  93 CALM      30.13F
GALLATIN       CLEAR     28  23  80 CALM      30.20F
CROSSVILLE     CLOUDY    27  22  81 NE3       30.11F
$$

TNZ061-075-076-078-094-096-097-230900-
SOUTH MIDDLE TENNESSEE

CITY           SKY/WX    TMP DP  RH WIND       PRES   REMARKS
FAYETTEVILLE   CLEAR     30  25  80 NE6       30.12F WCI  24
TULLAHOMA      CLEAR     32  23  69 NE3       30.12F
WINCHESTER     CLEAR     25  21  86 CALM      30.14S
MCMINNVILLE    CLEAR     27  23  86 N3        30.13F
COLUMBIA       CLEAR     25  23  93 CALM      30.15S
SHELBYVILLE    CLEAR     25  23  93 CALM      30.14F
$$

TNZ017-018-042-046-047-230900-
NORTHEAST TENNESSEE

CITY           SKY/WX    TMP DP  RH WIND       PRES   REMARKS
TRI CITIES     CLOUDY    25  24  96 CALM      30.14S
ELIZABETHTON   CLEAR     27  25  93 CALM      30.14S
$$

TNZ012-013-036-069-073-074-230900-
CENTRAL EAST TENNESSEE

CITY           SKY/WX    TMP DP  RH WIND       PRES   REMARKS
KNOXVILLE      CLEAR     35  29  78 NE5       30.12F WCI  31
OAK RIDGE      CLEAR     32  28  85 CALM      30.15F
DOWNTOWN KNOXV CLEAR     30  30 100 SE3       30.15S
GATLINBURG     CLEAR     28  27  93 NE3       30.13F
MORRISTOWN     PTCLDY    32  25  74 CALM      30.12F
JACKSBORO      CLEAR     27  25  93 CALM      30.17F
$$

TNZ083-085-099-230900-
SOUTHEAST TENNESSEE

CITY           SKY/WX    TMP DP  RH WIND       PRES   REMARKS
CHATTANOOGA    CLEAR     34  27  75 CALM      30.13F
DAYTON         SUNNY     28  28 100 CALM      30.13F
$$

SKY/WX REPORTED AS FAIR MEANS FEW OR NO CLOUDS BELOW
12 THOUSAND FEET.





USA.gov is the U.S. government's official web portal to all federal, state and local government web resources and services.